Vertical_Velocity
4 1 1 3 0 2 1 1 -1 -1 -2 -2 -2 -1 1 0 -0 -2 -2 -4 -2 -1 -2 -1 0 -1 -2 -2 -4 -0 1 -2
0 -0 1 2 -0 0 2 0 -2 -3 -5 -2 -3 -2 -3 -4 -4 -2 -1 -4 -4 -5 -3 -2 -2 -2 -2 -2 -2 -7 -3 -3
2 6 1 1 -2 2 0 -1 -3 -2 -1 -3 -1 1 -2 -2 -2 -4 -3 -2 -3 -4 -3 -4 -1 -5 -4 -3 -4 -5 -1 -2
-1 0 -2 -0 1 0 -1 -1 -1 -2 -3 -1 -1 -1 -1 -2 -4 -4 -7 -4 -5 -2 -5 -3 -3 -0 -0 -2 -5 -1 -1 1
1 3 4 1 3 1 2 1 1 1 -0 -0 -0 0 2 -5 -1 -2 -2 2 -2 -3 2 1 0 -0 -4 1 -5 -0 -2 -1
-1 -2 -1 2 4 1 3 2 1 -1 -1 1 1 -1 -3 -2 -2 -3 -2 -3 -2 -1 -2 -1 1 -1 1 -2 -2 -4 1 -1
4 -1 -2 1 4 5 4 3 0 -2 -2 1 -1 -3 -2 2 -3 3 2 -1 -1 -2 2 2 0 0 -4 -4 -2 -1 1 1
1 -2 2 6 -3 1 1 0 -0 0 -0 -0 -2 1 -3 -1 -4 0 -2 0 -4 -5 3 -3 1 -0 -1 -4 -2 1 1 -0
1 -2 -3 3 1 5 4 -1 -4 -1 0 -4 -1 -1 -2 0 -2 2 4 -0 -1 -1 0 1 -2 -1 -3 -3 1 0 -0 -2
0 2 2 -0 2 2 1 -0 1 1 -2 -2 -2 -1 -1 -3 -1 -0 0 -3 1 1 -2 -2 -2 -3 -1 -1 0 0 -0 -1
2 -1 2 7 3 1 2 0 -1 -1 -0 -2 -1 -1 -1 0 0 0 -3 1 0 -1 -3 -3 -1 -1 -3 -1 -0 0 -2 -2
-0 0 1 15 -4 -0 2 1 1 -1 -2 -0 -0 -0 -1 1 0 -0 -3 1 -1 -0 -4 -3 -1 -1 -3 -1 1 -2 -3 -2
4 -0 -3 9 -1 2 2 2 -4 -0 -2 -2 -3 -0 -3 2 -1 1 -1 -1 -1 -1 -1 -3 -2 -1 -1 1 0 -2 -3 -1
1 -1 -0 1 -0 3 0 -0 1 1 -3 -3 4 -9 4 -0 0 -2 -2 -4 -2 -1 0 -3 -1 -1 -1 -1 -1 -1 -2 -2
-1 -1 -1 -1 2 -1 -0 2 1 -2 -1 -1 -6 -3 2 2 -2 -1 -0 -3 -2 -2 -1 -3 -1 -1 -1 -1 -0 -2 -2 -3
-1 -1 -1 -5 4 -2 2 0 2 -2 -1 -1 -5 1 1 -0 -3 -1 -0 -1 -3 -0 -2 -4 -1 0 -1 -1 -1 -2 -3 -2
2 11 -3 3 2 -1 -0 -1 -2 -1 2 -5 -1 2 1 -2 -2 -1 -2 -2 -1 -1 -2 -3 -1 1 -2 -1 -0 -1 -4 -2
-2 -3 3 -12 5 1 -1 1 1 4 -2 -2 -0 1 -0 -2 -1 -2 -1 -2 -0 -1 -2 -3 -1 0 -2 -1 -1 -3 -1 -1
1 -1 4 -3 -1 1 1 -2 1 -1 -1 2 1 -0 -2 -1 -1 -1 0 -1 -0 -0 -0 -1 2 -0 -2 -2 0 6 3 0
Height
1481 1485 1488 1493 1495 1496 1497 1499 1500 1502 1505 1506 1508 1509 1509 1508 1507 1505 1504 1503 1502 1501 1499 1496 1494 1492 1489 1486 1484 1481 1478 1473
1475 1481 1484 1488 1491 1493 1495 1495 1497 1501 1504 1507 1508 1509 1508 1507 1505 1505 1504 1503 1501 1500 1499 1496 1494 1491 1489 1485 1483 1480 1479 1473
1473 1477 1479 1483 1486 1489 1490 1492 1494 1498 1502 1504 1505 1506 1504 1504 1505 1505 1504 1502 1500 1498 1497 1494 1492 1490 1489 1485 1483 1481 1479 1476
1467 1470 1473 1478 1482 1484 1487 1489 1491 1494 1496 1499 1500 1501 1503 1504 1504 1502 1501 1500 1498 1496 1494 1492 1491 1489 1489 1485 1482 1484 1477 1477
1462 1466 1470 1474 1478 1481 1484 1487 1489 1491 1494 1497 1499 1502 1504 1503 1502 1500 1501 1498 1497 1496 1494 1490 1488 1487 1487 1486 1484 1483 1479 1477
1454 1462 1468 1472 1476 1479 1482 1484 1487 1489 1492 1493 1495 1497 1498 1500 1500 1500 1499 1498 1496 1495 1494 1491 1488 1485 1485 1486 1484 1483 1481 1477
1451 1459 1466 1472 1475 1476 1478 1481 1482 1485 1489 1491 1492 1495 1496 1499 1499 1502 1500 1499 1499 1495 1494 1490 1487 1485 1483 1485 1484 1483 1480 1477
1446 1454 1461 1467 1470 1472 1474 1478 1479 1482 1486 1488 1490 1492 1494 1495 1496 1498 1497 1496 1496 1498 1493 1490 1487 1485 1483 1484 1484 1482 1480 1478
1442 1447 1453 1461 1467 1469 1470 1473 1476 1480 1483 1485 1488 1490 1493 1493 1493 1496 1493 1493 1494 1493 1491 1490 1486 1485 1483 1484 1484 1481 1480 1477
1435 1443 1448 1455 1465 1467 1467 1469 1474 1478 1480 1483 1486 1487 1490 1489 1490 1491 1491 1491 1492 1490 1489 1489 1487 1485 1483 1484 1483 1480 1479 1477
1435 1439 1443 1452 1456 1463 1466 1469 1471 1474 1478 1480 1483 1485 1487 1488 1489 1488 1490 1490 1489 1489 1487 1488 1486 1484 1483 1483 1482 1478 1477 1477
1433 1438 1442 1446 1451 1456 1461 1465 1467 1469 1476 1478 1481 1484 1484 1485 1486 1486 1487 1487 1488 1487 1486 1486 1486 1484 1483 1482 1480 1477 1476 1475
1431 1433 1440 1442 1445 1454 1456 1460 1463 1468 1472 1475 1479 1482 1485 1483 1484 1484 1484 1486 1486 1486 1485 1485 1485 1484 1483 1481 1479 1478 1476 1474
1427 1431 1436 1438 1441 1448 1451 1455 1462 1465 1468 1472 1476 1481 1482 1480 1481 1482 1482 1484 1485 1485 1484 1485 1485 1484 1483 1481 1480 1479 1477 1475
1420 1425 1433 1434 1440 1439 1449 1452 1458 1462 1466 1469 1472 1478 1478 1478 1479 1480 1481 1482 1483 1484 1483 1484 1484 1484 1483 1482 1480 1479 1478 1476
1414 1419 1424 1427 1434 1437 1443 1449 1453 1458 1462 1465 1472 1475 1475 1476 1477 1479 1480 1481 1482 1483 1483 1483 1484 1484 1483 1482 1480 1479 1477 1476
1409 1413 1419 1423 1428 1432 1440 1445 1450 1454 1457 1462 1468 1471 1472 1474 1476 1478 1479 1480 1481 1482 1482 1484 1484 1484 1483 1482 1480 1479 1478 1477
1402 1405 1408 1419 1425 1428 1435 1441 1448 1451 1455 1461 1465 1467 1470 1473 1475 1477 1478 1480 1481 1481 1482 1484 1486 1483 1483 1482 1480 1480 1480 1478
1396 1402 1406 1411 1422 1427 1433 1439 1444 1449 1455 1460 1462 1465 1470 1473 1476 1478 1480 1481 1482 1483 1484 1487 1488 1483 1483 1482 1482 1485 1484 1481